| time (UTC) | temp F | wind direction | speed MPH | gust MPH | rain 1hr in | rain 24hr in | rain mn in | humidity % | barometer mb |
| 20260903013511 | 69 | 19 | 0.0 | 11.0 | 0.06 | 1.36 | 1.35 | 89 | 1011.1 |
| 20260903013008 | 69 | 25 | 0.0 | 7.0 | 0.05 | 1.34 | 1.34 | 89 | 1011.6 |
| 20260903012554 | 69 | 19 | 0.0 | 8.0 | 0.07 | 1.34 | 1.34 | 89 | 1012.3 |
| 20260903012119 | 69 | 20 | 0.0 | 8.0 | 0.08 | 1.34 | 1.34 | 89 | 1012.5 |
| 20260903011508 | 69 | 18 | 0.0 | 7.0 | 0.08 | 1.34 | 1.34 | 89 | 1012.0 |
| 20260903011007 | 69 | 19 | 0.0 | 8.0 | 0.09 | 1.34 | 1.33 | 89 | 1012.0 |
| 20260903010601 | 69 | 20 | 0.0 | 9.0 | 0.08 | 1.33 | 1.33 | 89 | 1012.0 |
| 20260903010116 | 69 | 19 | 0.0 | 9.0 | 0.09 | 1.33 | 1.33 | 89 | 1012.0 |
| 20260903005507 | 69 | 18 | 0.0 | 4.0 | 0.22 | 1.33 | 1.33 | 89 | 1011.9 |
| 20260903005005 | 69 | 18 | 0.0 | 4.0 | 0.24 | 1.33 | 1.33 | 89 | 1012.0 |
| 20260903004506 | 69 | 19 | 0.0 | 4.0 | 0.24 | 1.32 | 1.32 | 89 | 1012.3 |
| 20260903004005 | 70 | 19 | 0.0 | 4.0 | 0.26 | 1.31 | 1.31 | 89 | 1012.5 |
| 20260903003505 | 70 | 19 | 0.0 | 1.0 | 0.37 | 1.30 | 1.30 | 89 | 1012.5 |
| 20260903003007 | 69 | 19 | 0.0 | 4.0 | 0.50 | 1.29 | 1.28 | 89 | 1012.9 |
| 20260903002620 | 69 | 19 | 0.0 | 4.0 | 0.63 | 1.27 | 1.27 | 89 | 1012.6 |
| 20260902230502 | 81 | 355 | 0.0 | 1.0 | 0.00 | 0.23 | 0.23 | 81 | 1011.3 |
| 20260902230005 | 82 | 209 | 0.0 | 0.0 | 0.00 | 0.23 | 0.23 | 81 | 1010.2 |
| 20260902225504 | 82 | 209 | 0.0 | 0.0 | 0.00 | 0.23 | 0.23 | 80 | 1010.0 |
| 20260902225002 | 82 | 209 | 0.0 | 0.0 | 0.00 | 0.23 | 0.23 | 80 | 1010.3 |
| 20260902224504 | 82 | 209 | 0.0 | 0.0 | 0.00 | 0.23 | 0.23 | 79 | 1010.1 |
| 20260902224004 | 83 | 209 | 0.0 | 0.0 | 0.00 | 0.23 | 0.23 | 78 | 1010.8 |
| 20260902223504 | 83 | 209 | 0.0 | 0.0 | 0.00 | 0.23 | 0.23 | 78 | 1011.2 |
| 20260902223003 | 83 | 209 | 0.0 | 0.0 | 0.00 | 0.23 | 0.23 | 77 | 1010.9 |
| 20260902222504 | 83 | 209 | 0.0 | 0.0 | 0.00 | 0.23 | 0.23 | 77 | 1010.8 |
| 20260902222002 | 84 | 209 | 0.0 | 0.0 | 0.00 | 0.23 | 0.23 | 76 | 1010.3 |
| 20260902221608 | 84 | 209 | 0.0 | 0.0 | 0.00 | 0.23 | 0.23 | 76 | 1010.7 |
| 20260902221115 | 84 | 209 | 0.0 | 0.0 | 0.00 | 0.23 | 0.23 | 76 | 1010.6 |
| 20260902220504 | 84 | 209 | 0.0 | 0.0 | 0.00 | 0.23 | 0.23 | 76 | 1010.4 |
| 20260902220116 | 85 | 223 | 0.0 | 0.0 | 0.00 | 0.23 | 0.23 | 75 | 1010.5 |
| 20260902215504 | 85 | 223 | 0.0 | 0.0 | 0.00 | 0.23 | 0.23 | 75 | 1010.6 |
| 20260902215002 | 85 | 223 | 0.0 | 0.0 | 0.00 | 0.23 | 0.23 | 75 | 1010.7 |
| 20260902214504 | 85 | 223 | 0.0 | 0.0 | 0.00 | 0.23 | 0.23 | 75 | 1010.8 |
| 20260902213956 | 85 | 223 | 0.0 | 0.0 | 0.00 | 0.23 | 0.23 | 75 | 1010.9 |
| 20260902213450 | 85 | 223 | 0.0 | 0.0 | 0.00 | 0.23 | 0.23 | 74 | 1011.3 |
| 20260902213114 | 85 | 223 | 0.0 | 0.0 | 0.00 | 0.23 | 0.23 | 75 | 1011.4 |
| 20260902212438 | 85 | 223 | 0.0 | 0.0 | 0.00 | 0.23 | 0.23 | 75 | 1011.6 |
| 20260902211937 | 85 | 223 | 0.0 | 0.0 | 0.00 | 0.23 | 0.23 | 74 | 1011.6 |
| 20260902211435 | 85 | 223 | 0.0 | 0.0 | 0.00 | 0.23 | 0.23 | 73 | 1011.2 |
| 20260902210931 | 85 | 223 | 0.0 | 0.0 | 0.00 | 0.23 | 0.23 | 73 | 1011.1 |
| 20260902210430 | 85 | 223 | 0.0 | 0.0 | 0.00 | 0.23 | 0.23 | 73 | 1011.2 |
| 20260902205931 | 85 | 223 | 0.0 | 0.0 | 0.00 | 0.23 | 0.23 | 73 | 1011.3 |
| 20260902205431 | 85 | 223 | 0.0 | 0.0 | 0.00 | 0.23 | 0.23 | 72 | 1011.5 |
| 20260902204931 | 85 | 223 | 0.0 | 0.0 | 0.00 | 0.23 | 0.23 | 72 | 1011.7 |
| 20260902204430 | 85 | 223 | 0.0 | 0.0 | 0.00 | 0.23 | 0.23 | 72 | 1011.8 |
| 20260902203931 | 85 | 223 | 0.0 | 0.0 | 0.00 | 0.23 | 0.23 | 72 | 1012.1 |
| 20260902203430 | 85 | 223 | 0.0 | 0.0 | 0.00 | 0.23 | 0.23 | 70 | 1012.6 |
| 20260902202931 | 86 | 223 | 0.0 | 0.0 | 0.00 | 0.23 | 0.23 | 71 | 1012.6 |
| 20260902202430 | 85 | 223 | 0.0 | 0.0 | 0.00 | 0.23 | 0.23 | 70 | 1012.7 |
| 20260902201931 | 85 | 223 | 0.0 | 0.0 | 0.00 | 0.23 | 0.23 | 71 | 1012.7 |
| 20260902201430 | 85 | 229 | 0.0 | 1.0 | 0.00 | 0.23 | 0.23 | 70 | 1012.8 |
| 20260902200931 | 85 | 229 | 0.0 | 1.0 | 0.00 | 0.23 | 0.23 | 70 | 1012.8 |
| 20260902200431 | 85 | 223 | 0.0 | 4.0 | 0.00 | 0.23 | 0.23 | 71 | 1013.0 |
| 20260902195931 | 85 | 229 | 0.0 | 5.0 | 0.00 | 0.23 | 0.23 | 70 | 1013.1 |
| 20260902195431 | 84 | 224 | 0.0 | 5.0 | 0.00 | 0.23 | 0.23 | 71 | 1013.0 |
| 20260902194931 | 84 | 232 | 0.0 | 6.0 | 0.00 | 0.23 | 0.23 | 73 | 1013.2 |
| 20260902194431 | 83 | 232 | 0.0 | 6.0 | 0.00 | 0.23 | 0.23 | 72 | 1013.2 |
| 20260902194114 | 83 | 228 | 0.0 | 5.0 | 0.00 | 0.23 | 0.23 | 72 | 1013.1 |
| 20260902193431 | 83 | 259 | 0.0 | 4.0 | 0.00 | 0.23 | 0.23 | 73 | 1013.1 |
| 20260902192930 | 83 | 236 | 0.0 | 1.0 | 0.00 | 0.23 | 0.23 | 74 | 1012.9 |
| 20260902192431 | 83 | 259 | 1.0 | 8.0 | 0.00 | 0.23 | 0.23 | 74 | 1013.0 |
| 20260902191931 | 83 | 242 | 1.0 | 8.0 | 0.00 | 0.23 | 0.23 | 74 | 1013.0 |
| 20260902191432 | 83 | 208 | 1.0 | 7.0 | 0.00 | 0.23 | 0.23 | 75 | 1013.0 |
| 20260902190930 | 83 | 209 | 1.0 | 7.0 | 0.00 | 0.23 | 0.23 | 76 | 1012.9 |
| 20260902190432 | 83 | 234 | 0.0 | 6.0 | 0.00 | 0.23 | 0.23 | 77 | 1012.9 |
| 20260902185930 | 83 | 221 | 0.0 | 4.0 | 0.00 | 0.23 | 0.23 | 77 | 1012.9 |
| 20260902185432 | 83 | 221 | 0.0 | 4.0 | 0.00 | 0.23 | 0.23 | 77 | 1012.9 |
| 20260902184930 | 83 | 236 | 0.0 | 4.0 | 0.00 | 0.23 | 0.23 | 75 | 1012.9 |
| 20260902184432 | 84 | 219 | 0.0 | 1.0 | 0.00 | 0.23 | 0.23 | 76 | 1012.8 |
| 20260902183931 | 84 | 215 | 0.0 | 2.0 | 0.00 | 0.23 | 0.23 | 75 | 1012.5 |
| 20260902183432 | 84 | 219 | 0.0 | 4.0 | 0.00 | 0.23 | 0.23 | 76 | 1012.6 |
| 20260902182930 | 83 | 218 | 0.0 | 4.0 | 0.00 | 0.23 | 0.23 | 77 | 1012.4 |
| 20260902182432 | 83 | 218 | 0.0 | 3.0 | 0.00 | 0.23 | 0.23 | 76 | 1012.5 |
| 20260902181930 | 83 | 218 | 0.0 | 3.0 | 0.00 | 0.23 | 0.23 | 76 | 1012.6 |
| 20260902181432 | 83 | 250 | 0.0 | 3.0 | 0.00 | 0.23 | 0.23 | 76 | 1012.8 |
| 20260902180931 | 83 | 232 | 0.0 | 2.0 | 0.00 | 0.23 | 0.23 | 76 | 1012.8 |
| 20260902180432 | 83 | 229 | 0.0 | 2.0 | 0.00 | 0.23 | 0.23 | 75 | 1012.8 |
| 20260902175931 | 83 | 226 | 0.0 | 2.0 | 0.00 | 0.23 | 0.23 | 75 | 1012.9 |
| 20260902175429 | 84 | 216 | 0.0 | 2.0 | 0.00 | 0.23 | 0.23 | 73 | 1013.0 |
| 20260902174926 | 84 | 211 | 0.0 | 10.0 | 0.00 | 0.23 | 0.23 | 73 | 1013.1 |
| 20260902174428 | 84 | 175 | 0.0 | 10.0 | 0.00 | 0.23 | 0.23 | 73 | 1013.2 |
| 20260902173926 | 84 | 221 | 1.0 | 8.0 | 0.00 | 0.23 | 0.23 | 72 | 1013.3 |
| 20260902173433 | 85 | 219 | 0.0 | 6.0 | 0.00 | 0.23 | 0.23 | 71 | 1013.4 |
| 20260902172926 | 85 | 221 | 0.0 | 5.0 | 0.00 | 0.23 | 0.23 | 71 | 1013.6 |
| 20260902172427 | 85 | 195 | 1.0 | 9.0 | 0.00 | 0.23 | 0.23 | 72 | 1013.7 |
| 20260902171926 | 84 | 210 | 0.0 | 9.0 | 0.00 | 0.23 | 0.23 | 74 | 1013.7 |
| 20260902171424 | 84 | 215 | 0.0 | 7.0 | 0.00 | 0.23 | 0.23 | 73 | 1013.6 |
| 20260902170924 | 84 | 230 | 0.0 | 7.0 | 0.00 | 0.23 | 0.23 | 73 | 1013.6 |
| 20260902170418 | 84 | 205 | 0.0 | 7.0 | 0.00 | 0.23 | 0.23 | 74 | 1013.6 |
| 20260902165917 | 83 | 159 | 0.0 | 5.0 | 0.00 | 0.23 | 0.23 | 75 | 1013.5 |
| 20260902165417 | 83 | 229 | 0.0 | 9.0 | 0.00 | 0.23 | 0.23 | 75 | 1013.6 |
| 20260902164917 | 83 | 237 | 1.0 | 9.0 | 0.00 | 0.23 | 0.23 | 75 | 1013.5 |
| 20260902164417 | 83 | 182 | 1.0 | 9.0 | 0.00 | 0.23 | 0.23 | 75 | 1013.4 |
| 20260902163916 | 83 | 193 | 1.0 | 7.0 | 0.00 | 0.23 | 0.23 | 74 | 1013.4 |
| 20260902163417 | 83 | 221 | 0.0 | 4.0 | 0.00 | 0.23 | 0.23 | 75 | 1013.5 |
| 20260902162915 | 82 | 232 | 0.0 | 2.0 | 0.00 | 0.23 | 0.23 | 77 | 1013.5 |
| 20260902162415 | 82 | 234 | 0.0 | 2.0 | 0.00 | 0.23 | 0.23 | 78 | 1013.6 |
| 20260902161915 | 82 | 234 | 0.0 | 5.0 | 0.00 | 0.23 | 0.23 | 78 | 1013.8 |
| 20260902161414 | 81 | 234 | 0.0 | 5.0 | 0.00 | 0.23 | 0.23 | 77 | 1013.7 |
| 20260902160915 | 81 | 238 | 0.0 | 2.0 | 0.00 | 0.23 | 0.23 | 78 | 1013.7 |
| 20260902160411 | 80 | 238 | 0.0 | 7.0 | 0.00 | 0.23 | 0.23 | 79 | 1013.8 |
| 20260902155911 | 80 | 239 | 0.0 | 7.0 | 0.00 | 0.23 | 0.23 | 78 | 1013.8 |
| 20260902155411 | 79 | 228 | 0.0 | 8.0 | 0.00 | 0.23 | 0.23 | 80 | 1013.9 |
| 20260902154911 | 79 | 228 | 0.0 | 8.0 | 0.00 | 0.23 | 0.23 | 80 | 1014.0 |
| 20260902154539 | 78 | 204 | 0.0 | 6.0 | 0.00 | 0.23 | 0.23 | 80 | 1013.9 |
| 20260902154102 | 78 | 200 | 0.0 | 6.0 | 0.00 | 0.23 | 0.23 | 82 | 1013.9 |
| 20260902153545 | 77 | 200 | 0.0 | 5.0 | 0.00 | 0.23 | 0.23 | 83 | 1014.0 |
| 20260902153105 | 76 | 199 | 0.0 | 1.0 | 0.00 | 0.23 | 0.23 | 85 | 1014.0 |
| 20260902152411 | 76 | 200 | 0.0 | 3.0 | 0.00 | 0.23 | 0.23 | 86 | 1014.0 |
| 20260902152058 | 75 | 200 | 0.0 | 3.0 | 0.00 | 0.23 | 0.23 | 87 | 1014.1 |
| 20260902151411 | 74 | 200 | 0.0 | 2.0 | 0.00 | 0.23 | 0.23 | 88 | 1014.2 |
| 20260902151059 | 74 | 209 | 0.0 | 0.0 | 0.00 | 0.23 | 0.23 | 89 | 1014.0 |
| 20260902150411 | 73 | 209 | 0.0 | 7.0 | 0.00 | 0.23 | 0.23 | 89 | 1014.2 |
| 20260902145911 | 73 | 209 | 0.0 | 7.0 | 0.00 | 0.23 | 0.23 | 90 | 1014.2 |
| 20260902145411 | 72 | 211 | 0.0 | 5.0 | 0.00 | 0.23 | 0.23 | 90 | 1014.2 |
| 20260902144910 | 72 | 186 | 0.0 | 2.0 | 0.00 | 0.23 | 0.23 | 90 | 1014.3 |
| 20260902144540 | 72 | 186 | 0.0 | 0.0 | 0.00 | 0.23 | 0.23 | 90 | 1014.4 |
| 20260902144102 | 72 | 186 | 0.0 | 6.0 | 0.00 | 0.23 | 0.23 | 89 | 1014.4 |
| 20260902143411 | 72 | 185 | 0.0 | 6.0 | 0.00 | 0.23 | 0.23 | 89 | 1014.4 |
| 20260902142911 | 72 | 185 | 0.0 | 0.0 | 0.00 | 0.23 | 0.23 | 89 | 1014.6 |
| 20260902142411 | 71 | 12 | 0.0 | 11.0 | 0.00 | 0.23 | 0.23 | 89 | 1014.5 |
| 20260902141908 | 71 | 12 | 0.0 | 11.0 | 0.00 | 0.23 | 0.23 | 89 | 1014.6 |
| 20260902141407 | 71 | 11 | 0.0 | 4.0 | 0.00 | 0.23 | 0.23 | 88 | 1014.7 |
| 20260902140907 | 71 | 11 | 0.0 | 2.0 | 0.00 | 0.23 | 0.23 | 89 | 1014.9 |
| 20260902140405 | 70 | 11 | 0.0 | 2.0 | 0.00 | 0.23 | 0.23 | 89 | 1014.9 |
| 20260902140101 | 70 | 14 | 0.0 | 2.0 | 0.00 | 0.23 | 0.23 | 89 | 1014.9 |
| 20260902135405 | 70 | 15 | 0.0 | 3.0 | 0.00 | 0.23 | 0.23 | 89 | 1014.9 |
| 20260902134902 | 70 | 14 | 0.0 | 3.0 | 0.00 | 0.23 | 0.23 | 89 | 1015.0 |
| 20260902134401 | 69 | 9 | 0.0 | 1.0 | 0.02 | 0.23 | 0.23 | 89 | 1015.0 |
| 20260902134103 | 69 | 9 | 0.0 | 2.0 | 0.04 | 0.23 | 0.23 | 90 | 1014.6 |
| 20260902133401 | 69 | 9 | 0.0 | 2.0 | 0.06 | 0.23 | 0.23 | 90 | 1014.7 |
| 20260902132901 | 69 | 26 | 0.0 | 0.0 | 0.11 | 0.23 | 0.23 | 90 | 1015.4 |
| 20260902132401 | 69 | 30 | 0.0 | 0.0 | 0.19 | 0.23 | 0.23 | 90 | 1015.5 |
| 20260902131901 | 69 | 30 | 0.0 | 0.0 | 0.22 | 0.23 | 0.23 | 90 | 1015.3 |
| 20260902131401 | 69 | 30 | 0.0 | 0.0 | 0.23 | 0.23 | 0.23 | 90 | 1015.2 |
| 20260902130858 | 69 | 31 | 0.0 | 0.0 | 0.23 | 0.23 | 0.23 | 90 | 1015.3 |
| 20260902130543 | 69 | 32 | 0.0 | 0.0 | 0.23 | 0.23 | 0.23 | 90 | 1015.5 |
| 20260902125358 | 69 | 31 | 0.0 | 1.0 | 0.23 | 0.23 | 0.23 | 90 | 1015.9 |
| 20260902124359 | 70 | 32 | 0.0 | 2.0 | 0.21 | 0.21 | 0.21 | 90 | 1015.3 |
| 20260902123859 | 70 | 32 | 0.0 | 8.0 | 0.19 | 0.19 | 0.18 | 90 | 1015.4 |
| 20260902123358 | 71 | 30 | 1.0 | 19.0 | 0.17 | 0.17 | 0.16 | 90 | 1015.5 |
| 20260902122858 | 72 | 27 | 1.0 | 19.0 | 0.12 | 0.12 | 0.09 | 90 | 1015.7 |
| 20260902122358 | 73 | 22 | 0.0 | 1.0 | 0.04 | 0.04 | 0.03 | 90 | 1015.1 |
| 20260902121356 | 73 | 20 | 0.0 | 0.0 | 0.00 | 0.00 | 0.00 | 90 | 1014.7 |
| 20260902120352 | 73 | 19 | 0.0 | 0.0 | 0.00 | 0.00 | 0.00 | 90 | 1014.0 |
| 20260902115348 | 73 | 21 | 0.0 | 0.0 | 0.00 | 0.00 | 0.00 | 90 | 1014.1 |
| 20260902114848 | 73 | 21 | 0.0 | 0.0 | 0.00 | 0.00 | 0.00 | 90 | 1014.1 |
| 20260902114349 | 73 | 22 | 0.0 | 0.0 | 0.00 | 0.00 | 0.00 | 90 | 1013.7 |
| 20260902113526 | 73 | 20 | 0.0 | 0.0 | 0.00 | 0.01 | 0.00 | 90 | 1013.4 |
| 20260902113048 | 73 | 19 | 0.0 | 0.0 | 0.00 | 0.01 | 0.00 | 90 | 1013.3 |
| 20260902112336 | 73 | 20 | 0.0 | 0.0 | 0.00 | 0.01 | 0.00 | 90 | 1012.7 |
| 20260902111334 | 73 | 19 | 0.0 | 0.0 | 0.00 | 0.01 | 0.00 | 90 | 1012.6 |
| 20260902110834 | 73 | 20 | 0.0 | 0.0 | 0.00 | 0.01 | 0.00 | 90 | 1013.1 |
| 20260902110334 | 73 | 19 | 0.0 | 0.0 | 0.00 | 0.01 | 0.00 | 90 | 1013.0 |
| 20260902105833 | 73 | 19 | 0.0 | 1.0 | 0.00 | 0.01 | 0.00 | 90 | 1013.0 |
| 20260902105331 | 73 | 19 | 0.0 | 1.0 | 0.00 | 0.01 | 0.00 | 90 | 1013.1 |
| 20260902104830 | 72 | 19 | 0.0 | 0.0 | 0.00 | 0.01 | 0.00 | 90 | 1012.8 |
| 20260902104330 | 72 | 19 | 0.0 | 0.0 | 0.00 | 0.01 | 0.00 | 90 | 1012.7 |
| 20260902103830 | 72 | 19 | 0.0 | 0.0 | 0.00 | 0.01 | 0.00 | 89 | 1012.8 |
| 20260902103329 | 72 | 19 | 0.0 | 0.0 | 0.00 | 0.01 | 0.00 | 90 | 1012.8 |
| 20260902102829 | 72 | 19 | 0.0 | 0.0 | 0.00 | 0.01 | 0.00 | 90 | 1012.9 |
| 20260902102330 | 72 | 20 | 0.0 | 0.0 | 0.00 | 0.01 | 0.00 | 90 | 1013.0 |
| 20260902101829 | 72 | 21 | 0.0 | 0.0 | 0.00 | 0.01 | 0.00 | 89 | 1012.7 |
| 20260902101329 | 72 | 20 | 0.0 | 0.0 | 0.00 | 0.01 | 0.00 | 90 | 1012.8 |
| 20260902100830 | 72 | 19 | 0.0 | 1.0 | 0.00 | 0.01 | 0.00 | 90 | 1012.8 |
| 20260902100324 | 71 | 20 | 0.0 | 1.0 | 0.00 | 0.01 | 0.00 | 90 | 1012.8 |
| 20260902095824 | 71 | 20 | 0.0 | 0.0 | 0.00 | 0.01 | 0.00 | 90 | 1013.0 |
| 20260902095322 | 71 | 19 | 0.0 | 0.0 | 0.00 | 0.01 | 0.00 | 90 | 1013.0 |
| 20260902094823 | 71 | 20 | 0.0 | 0.0 | 0.00 | 0.01 | 0.00 | 90 | 1013.1 |
| 20260902094322 | 71 | 20 | 0.0 | 0.0 | 0.00 | 0.01 | 0.00 | 90 | 1013.4 |
| 20260902093819 | 71 | 19 | 0.0 | 0.0 | 0.00 | 0.01 | 0.00 | 90 | 1013.5 |
| 20260902093516 | 71 | 19 | 0.0 | 0.0 | 0.00 | 0.01 | 0.00 | 90 | 1013.6 |
| 20260902092818 | 71 | 19 | 0.0 | 0.0 | 0.00 | 0.01 | 0.00 | 90 | 1013.7 |
| 20260902092318 | 71 | 20 | 0.0 | 0.0 | 0.00 | 0.01 | 0.00 | 90 | 1013.6 |
| 20260902091816 | 71 | 20 | 0.0 | 1.0 | 0.00 | 0.01 | 0.00 | 90 | 1013.7 |
| 20260902091314 | 71 | 20 | 0.0 | 1.0 | 0.00 | 0.01 | 0.00 | 90 | 1013.8 |
| 20260902090812 | 71 | 21 | 0.0 | 0.0 | 0.00 | 0.01 | 0.00 | 90 | 1013.8 |
| 20260902090310 | 72 | 21 | 0.0 | 1.0 | 0.00 | 0.01 | 0.00 | 90 | 1013.8 |
| 20260902085810 | 72 | 20 | 0.0 | 1.0 | 0.00 | 0.01 | 0.00 | 90 | 1013.8 |
| 20260902085310 | 72 | 20 | 0.0 | 1.0 | 0.00 | 0.01 | 0.00 | 90 | 1013.8 |
| 20260902084810 | 72 | 19 | 0.0 | 4.0 | 0.00 | 0.01 | 0.00 | 90 | 1013.9 |
| 20260902084310 | 72 | 19 | 0.0 | 4.0 | 0.00 | 0.01 | 0.00 | 90 | 1013.9 |
| 20260902083808 | 72 | 19 | 0.0 | 0.0 | 0.00 | 0.01 | 0.00 | 90 | 1013.9 |
| 20260902083307 | 72 | 20 | 0.0 | 0.0 | 0.00 | 0.01 | 0.00 | 90 | 1013.9 |
| 20260902082808 | 72 | 20 | 0.0 | 0.0 | 0.00 | 0.01 | 0.00 | 90 | 1014.1 |
| 20260902082310 | 72 | 20 | 0.0 | 0.0 | 0.00 | 0.01 | 0.00 | 90 | 1014.1 |
| 20260902081807 | 72 | 20 | 0.0 | 0.0 | 0.00 | 0.01 | 0.00 | 90 | 1014.2 |
| 20260902081306 | 72 | 19 | 0.0 | 0.0 | 0.00 | 0.01 | 0.00 | 90 | 1014.2 |
| 20260902080806 | 72 | 22 | 0.0 | 0.0 | 0.00 | 0.01 | 0.00 | 90 | 1014.3 |
| 20260902080305 | 71 | 21 | 0.0 | 0.0 | 0.00 | 0.01 | 0.00 | 90 | 1014.2 |
| 20260902075806 | 71 | 20 | 0.0 | 0.0 | 0.00 | 0.01 | 0.00 | 90 | 1014.3 |
| 20260902075306 | 71 | 19 | 0.0 | 1.0 | 0.00 | 0.01 | 0.00 | 90 | 1014.3 |
| 20260902074806 | 71 | 20 | 0.0 | 1.0 | 0.00 | 0.01 | 0.00 | 90 | 1014.4 |
| 20260902074303 | 71 | 20 | 0.0 | 0.0 | 0.00 | 0.01 | 0.00 | 90 | 1014.4 |
| 20260902073802 | 71 | 19 | 0.0 | 0.0 | 0.00 | 0.01 | 0.00 | 90 | 1014.3 |
| 20260902073302 | 71 | 19 | 0.0 | 0.0 | 0.00 | 0.01 | 0.00 | 90 | 1014.3 |
| 20260902072802 | 71 | 19 | 0.0 | 0.0 | 0.00 | 0.01 | 0.00 | 90 | 1014.4 |
| 20260902072308 | 71 | 19 | 0.0 | 0.0 | 0.00 | 0.01 | 0.00 | 90 | 1014.4 |
| 20260902071801 | 71 | 19 | 0.0 | 0.0 | 0.00 | 0.01 | 0.00 | 90 | 1014.5 |
| 20260902071301 | 71 | 17 | 0.0 | 0.0 | 0.00 | 0.01 | 0.00 | 90 | 1014.5 |
| 20260902070802 | 71 | 17 | 0.0 | 0.0 | 0.00 | 0.01 | 0.00 | 90 | 1014.5 |
| 20260902070301 | 71 | 17 | 0.0 | 2.0 | 0.00 | 0.01 | 0.00 | 89 | 1014.5 |
| 20260902065801 | 71 | 17 | 0.0 | 2.0 | 0.00 | 0.01 | 0.00 | 89 | 1014.4 |
| 20260902065301 | 70 | 17 | 0.0 | 0.0 | 0.00 | 0.01 | 0.00 | 89 | 1014.5 |
| 20260902064801 | 70 | 18 | 0.0 | 0.0 | 0.00 | 0.01 | 0.00 | 89 | 1014.5 |
| 20260902064301 | 70 | 19 | 0.0 | 0.0 | 0.00 | 0.01 | 0.00 | 89 | 1014.5 |
| 20260902063802 | 70 | 19 | 0.0 | 0.0 | 0.00 | 0.01 | 0.00 | 89 | 1014.4 |
| 20260902063301 | 70 | 19 | 0.0 | 0.0 | 0.00 | 0.01 | 0.00 | 89 | 1014.4 |
| 20260902062802 | 70 | 19 | 0.0 | 0.0 | 0.00 | 0.01 | 0.00 | 89 | 1014.3 |
| 20260902062305 | 70 | 19 | 0.0 | 0.0 | 0.00 | 0.01 | 0.00 | 89 | 1014.2 |
| 20260902061801 | 70 | 19 | 0.0 | 0.0 | 0.00 | 0.01 | 0.00 | 89 | 1014.3 |
| 20260902061301 | 70 | 20 | 0.0 | 0.0 | 0.00 | 0.01 | 0.00 | 89 | 1014.4 |
| 20260902060801 | 70 | 20 | 0.0 | 0.0 | 0.00 | 0.01 | 0.00 | 89 | 1014.5 |
| 20260902060302 | 70 | 20 | 0.0 | 0.0 | 0.00 | 0.01 | 0.00 | 89 | 1014.6 |
| 20260902055759 | 70 | 21 | 0.0 | 0.0 | 0.00 | 0.01 | 0.00 | 89 | 1014.6 |
| 20260902055253 | 69 | 21 | 0.0 | 0.0 | 0.00 | 0.01 | 0.00 | 89 | 1014.5 |
| 20260902054747 | 69 | 21 | 0.0 | 0.0 | 0.00 | 0.01 | 0.00 | 89 | 1014.6 |
| 20260902054240 | 69 | 24 | 0.0 | 0.0 | 0.00 | 0.01 | 0.00 | 89 | 1014.6 |
| 20260902053735 | 69 | 24 | 0.0 | 0.0 | 0.00 | 0.01 | 0.00 | 89 | 1014.6 |
| 20260902053235 | 69 | 26 | 0.0 | 0.0 | 0.00 | 0.01 | 0.00 | 90 | 1014.7 |
| 20260902052734 | 69 | 27 | 0.0 | 0.0 | 0.00 | 0.01 | 0.00 | 90 | 1014.7 |
| 20260902052234 | 69 | 28 | 0.0 | 0.0 | 0.00 | 0.01 | 0.00 | 90 | 1014.7 |
| 20260902051734 | 69 | 27 | 0.0 | 0.0 | 0.00 | 0.01 | 0.00 | 90 | 1014.7 |
| 20260902051234 | 69 | 26 | 0.0 | 0.0 | 0.00 | 0.01 | 0.00 | 90 | 1014.7 |
| 20260902050730 | 69 | 26 | 0.0 | 0.0 | 0.00 | 0.01 | 0.00 | 90 | 1014.7 |
| 20260902050229 | 69 | 26 | 0.0 | 0.0 | 0.00 | 0.01 | 0.00 | 90 | 1014.7 |
| 20260902045729 | 69 | 27 | 0.0 | 0.0 | 0.00 | 0.02 | 0.00 | 90 | 1014.8 |
| 20260902045229 | 69 | 27 | 0.0 | 0.0 | 0.00 | 0.03 | 0.00 | 90 | 1014.9 |
| 20260902044730 | 69 | 26 | 0.0 | 0.0 | 0.00 | 0.04 | 0.00 | 90 | 1014.9 |
| 20260902044228 | 69 | 26 | 0.0 | 0.0 | 0.00 | 0.04 | 0.00 | 90 | 1014.8 |
| 20260902043730 | 70 | 26 | 0.0 | 0.0 | 0.00 | 0.04 | 0.00 | 90 | 1014.9 |
| 20260902043229 | 70 | 25 | 0.0 | 0.0 | 0.00 | 0.04 | 0.00 | 90 | 1014.8 |
| 20260902042729 | 70 | 25 | 0.0 | 0.0 | 0.00 | 0.04 | 0.00 | 90 | 1014.7 |
| 20260902042229 | 70 | 24 | 0.0 | 0.0 | 0.00 | 0.04 | 0.00 | 90 | 1014.7 |
| 20260902041729 | 70 | 23 | 0.0 | 0.0 | 0.00 | 0.04 | 0.00 | 90 | 1014.7 |
| 20260902041226 | 70 | 22 | 0.0 | 0.0 | 0.00 | 0.04 | 0.00 | 90 | 1014.8 |
| 20260902040725 | 70 | 21 | 0.0 | 0.0 | 0.00 | 0.04 | 0.00 | 90 | 1014.8 |
| 20260902040224 | 70 | 20 | 0.0 | 0.0 | 0.00 | 0.04 | 0.00 | 90 | 1014.8 |
| 20260902035722 | 70 | 19 | 0.0 | 0.0 | 0.00 | 0.04 | 0.04 | 90 | 1014.7 |
| 20260902035220 | 70 | 19 | 0.0 | 0.0 | 0.00 | 0.04 | 0.04 | 89 | 1014.8 |
| 20260902034718 | 70 | 19 | 0.0 | 0.0 | 0.00 | 0.04 | 0.04 | 89 | 1014.9 |
| 20260902034217 | 70 | 19 | 0.0 | 0.0 | 0.00 | 0.04 | 0.04 | 89 | 1014.9 |
| 20260902033715 | 70 | 19 | 0.0 | 0.0 | 0.00 | 0.04 | 0.04 | 89 | 1014.9 |
| 20260902033213 | 70 | 19 | 0.0 | 0.0 | 0.00 | 0.04 | 0.04 | 90 | 1014.8 |
| 20260902032712 | 70 | 20 | 0.0 | 0.0 | 0.00 | 0.04 | 0.04 | 90 | 1014.7 |
| 20260902032213 | 70 | 21 | 0.0 | 0.0 | 0.00 | 0.04 | 0.04 | 90 | 1014.7 |
| 20260902031710 | 70 | 22 | 0.0 | 0.0 | 0.00 | 0.04 | 0.04 | 90 | 1014.7 |
| 20260902031210 | 70 | 24 | 0.0 | 0.0 | 0.00 | 0.04 | 0.04 | 90 | 1014.7 |
| 20260902030710 | 70 | 24 | 0.0 | 0.0 | 0.00 | 0.04 | 0.04 | 90 | 1014.7 |
| 20260902030208 | 70 | 26 | 0.0 | 0.0 | 0.00 | 0.04 | 0.04 | 90 | 1014.8 |
| 20260902025708 | 70 | 28 | 0.0 | 0.0 | 0.00 | 0.04 | 0.04 | 90 | 1014.7 |
| 20260902025206 | 70 | 31 | 0.0 | 0.0 | 0.00 | 0.04 | 0.04 | 90 | 1014.7 |
| 20260902024706 | 70 | 30 | 0.0 | 0.0 | 0.00 | 0.04 | 0.04 | 90 | 1014.7 |
| 20260902024205 | 70 | 31 | 0.0 | 0.0 | 0.00 | 0.04 | 0.04 | 90 | 1014.7 |
| 20260902023706 | 70 | 30 | 0.0 | 0.0 | 0.00 | 0.04 | 0.04 | 90 | 1014.7 |
| 20260902023204 | 70 | 32 | 0.0 | 0.0 | 0.00 | 0.04 | 0.04 | 90 | 1014.9 |
| 20260902022704 | 70 | 31 | 0.0 | 0.0 | 0.00 | 0.04 | 0.04 | 90 | 1014.6 |
| 20260902022204 | 70 | 31 | 0.0 | 0.0 | 0.00 | 0.04 | 0.04 | 90 | 1014.7 |
| 20260902021704 | 70 | 31 | 0.0 | 0.0 | 0.00 | 0.04 | 0.04 | 90 | 1014.7 |
| 20260902021205 | 70 | 29 | 0.0 | 0.0 | 0.00 | 0.04 | 0.04 | 90 | 1014.7 |
| 20260902020704 | 70 | 30 | 0.0 | 1.0 | 0.00 | 0.04 | 0.04 | 90 | 1014.8 |
| 20260902020204 | 70 | 28 | 0.0 | 1.0 | 0.00 | 0.04 | 0.04 | 90 | 1014.9 |
| 20260902015704 | 71 | 28 | 0.0 | 0.0 | 0.00 | 0.04 | 0.04 | 90 | 1014.9 |
| 20260902015205 | 71 | 26 | 0.0 | 0.0 | 0.00 | 0.04 | 0.04 | 90 | 1015.0 |
| 20260902014704 | 71 | 26 | 0.0 | 0.0 | 0.00 | 0.04 | 0.04 | 90 | 1015.0 |
| 20260902014204 | 71 | 27 | 0.0 | 0.0 | 0.00 | 0.04 | 0.04 | 90 | 1015.0 |